Davis Rugins

スカウト - Metta/LU
4 12月 2028
月曜日
処理

性格

適応力 (10) 野心 (1) 物議 (7) 忠誠心 (13) プレッシャー耐性 (18) プロ意識 (7) スポーツマンシップ (14) 気質 (16)

プロフィール

指導スタイル 民主型
ライセンス 国内A級
決断力 6
人材管理 5
モチベーション 7
規律 5
仕事満足度
100%
疲労度
0%
役職 スカウト
給与 19.4K 週給
契約 14.03.2029

パフォーマンス

態度 良い
トレーニング効果
25%
選手育成
10%
怪我予防
35%
戦術実行
35%

最近の出来事

補強会議に出席 たった今
補強会議に出席 たった今
補強会議に出席 たった今
選手を視察 たった今
選手を視察 たった今
補強会議に出席 7日前
選手を視察 7日前
選手を視察 7日前

監視中

92
選手 クラブ 状態 能力 自信 視察済み 最終確認 最新投票
Agustín Gallo Tristán Suárez アクティブ 134 / 93 40% 4 03.12.2028 -
Steven Alfred Torpedo-BelAZ アクティブ 96 / 110 40% 1 03.12.2028 -
Said Aliev Rotor アクティブ 110 / 89 40% 3 02.12.2028 -
Facundo Krüger Temperley アクティブ 129 / 104 40% 1 30.11.2028 -
Santiago Rodríguez Gimnasia y Esgrima アクティブ 100 / 126 40% 1 30.11.2028 -
Maksim Chalavach Lokomotiv Gomel アクティブ 74 / 80 40% 1 29.11.2028 -
Blas Armoa Gimnasia y Esgrima アクティブ 99 / 112 40% 1 29.11.2028 -
Dmitriy Matyash Arsenal Dzerzhinsk アクティブ 96 / 80 40% 1 25.11.2028 -
Kirill Tsepenkov Dnepr Mogilev アクティブ 111 / 97 40% 1 25.11.2028 -
Magomed Nasibov Pobeda アクティブ 92 / 103 40% 3 23.11.2028 -
Alexey Antilevskiy Slavia Mozyr アクティブ 99 / 102 40% 1 20.11.2028 -
Jerónimo Porto Lapegüe San Telmo アクティブ 95 / 129 40% 1 19.11.2028 -
Sebastián de Marco Fenix アクティブ 90 / 96 40% 1 29.08.2028 -
Renzo Reynaga Patronato アクティブ 127 / 114 40% 1 29.08.2028 -
Davis Ciganovs Liepaja アクティブ 60 / 81 48% 1 07.08.2028 -
Denis Pushkarev Chelyabinsk アクティブ 83 / 95 40% 2 27.05.2028 -
Tyler Walton Bromley アクティブ 107 / 98 40% 1 27.05.2028 -
Aleksej Golijanin Sokol アクティブ 87 / 99 40% 2 24.05.2028 -
Enrico Baldini Bra アクティブ 117 / 98 40% 1 24.05.2028 -
Ilja Porokhov Shinnik アクティブ 91 / 82 40% 1 23.05.2028 -
Bashar Musa US Forces Armees アクティブ 88 / 99 40% 2 22.05.2028 -
Ismail Achik Salernitana アクティブ 101 / 108 40% 3 22.05.2028 -
Lorenzo De Leo Renate アクティブ 115 / 107 40% 1 18.05.2028 -
Facundo Lescano Salernitana アクティブ 106 / 110 40% 1 18.05.2028 -
Jacobo Alcalde SKA Khabarovsk アクティブ 102 / 97 40% 1 17.05.2028 -
Dmitry Kamenschikov Chernomorets アクティブ 102 / 82 40% 2 16.05.2028 -
Soslan Lysenko Spartak Nalchik アクティブ 80 / 85 40% 1 14.05.2028 -
Seb Palmer-Houlden Gillingham アクティブ 98 / 101 40% 1 13.05.2028 -
Nikita Kireev Dinamo Vologda アクティブ 76 / 79 40% 1 11.05.2028 -
Matty Stevens AFC Wimbledon アクティブ 125 / 104 40% 1 11.05.2028 -
Matija Popović Fakel アクティブ 123 / 104 40% 2 10.05.2028 -
Luca Mazzeo Picerno アクティブ 121 / 118 40% 1 10.05.2028 -
Guillaume Furrer Lecco アクティブ 98 / 111 40% 3 08.05.2028 -
Mattia Tordini Crotone アクティブ 119 / 117 40% 1 06.05.2028 情報不足
Alexandr Saplinov Volga アクティブ 91 / 95 40% 1 06.05.2028 -
Giacomo Zecca Torres アクティブ 131 / 103 40% 2 05.05.2028 -
Will Davies Fleetwood Town アクティブ 96 / 89 40% 2 04.05.2028 -
Calum Kavanagh Oldham Athletic アクティブ 107 / 117 40% 1 04.05.2028 -
Mikhail Gainov Dinamo Stavropol アクティブ 91 / 92 40% 1 03.05.2028 -
Matteo Cortesi Arezzo アクティブ 97 / 94 40% 1 02.05.2028 -
Gennaro Tutino Sampdoria アクティブ 111 / 117 40% 1 01.05.2028 -
Migran Ageyan Ufa アクティブ 110 / 93 40% 2 30.04.2028 -
Ilja Rubtsov Chaika アクティブ 102 / 82 40% 1 29.04.2028 -
Vladislav Yakovlev Volga アクティブ 103 / 110 40% 1 28.04.2028 -
Axel Gnapi Dable Fakel アクティブ 108 / 103 40% 2 27.04.2028 -
Tyrese Shade Burton Albion アクティブ 117 / 107 40% 1 26.04.2028 -
Dmitry Kuptsov Spartak Tambov アクティブ 80 / 76 40% 1 26.04.2028 -
Fletcher Boyd Accrington Stanley アクティブ 91 / 92 40% 1 25.04.2028 -
Luca Vido Union Brescia アクティブ 92 / 135 40% 2 24.04.2028 -
Gianluca D'Auria Potenza アクティブ 129 / 97 40% 1 24.04.2028 -
Paolo Yrizar Chernomorets アクティブ 93 / 88 40% 2 23.04.2028 -
Kamran Aliev SKA Khabarovsk アクティブ 110 / 103 40% 3 22.04.2028 -
Giuseppe Panico Foggia アクティブ 110 / 136 40% 2 22.04.2028 -
David Davidyan Rotor アクティブ 104 / 107 40% 1 20.04.2028 -
Ilja Safronov Rotor アクティブ 110 / 89 40% 1 07.04.2028 -
Ilja Stefanovich Leningradets アクティブ 94 / 101 40% 1 05.04.2028 -
Alessandro Ghillani Lumezzane アクティブ 112 / 110 40% 1 04.04.2028 -
Andrey Okladnikov Yenisey アクティブ 94 / 98 40% 1 31.03.2028 -
Mason Bennett Harrogate Town アクティブ 70 / 106 40% 1 31.03.2028 -
Kimarni Smith Newport County アクティブ 93 / 118 40% 1 30.03.2028 -
Danny Butterworth Accrington Stanley アクティブ 98 / 109 40% 1 27.03.2028 -
Alan Cisnero Exeter City アクティブ 128 / 106 40% 1 26.03.2028 -
Maxim Sergeev Spartak Tambov アクティブ 81 / 77 40% 1 25.03.2028 -
Danil Karpov KAMAZ アクティブ 93 / 85 40% 1 24.03.2028 -
Marcus Dinanga Bromley アクティブ 105 / 100 40% 1 24.03.2028 -
Danil Akhatov Ufa アクティブ 103 / 89 40% 1 23.03.2028 -
Juan Pablo Ramírez Chernomorets アクティブ 91 / 85 40% 1 21.03.2028 -
Nikita Bulvitis Spartaks アクティブ 67 / 94 41% 1 14.06.2027 -
Iļja Korotkovs Liepaja アクティブ 87 / 61 37% 1 11.01.2027 情報不足
Mikhail Gaidash Spartak Kostroma アクティブ 79 / 82 40% 1 28.12.2026 -
Timur Kraikov Sokol アクティブ 110 / 84 40% 1 25.12.2026 -
Ilja Tuseev Chelyabinsk アクティブ 104 / 102 40% 1 20.12.2026 -
Danila Sokol BATE アクティブ 89 / 83 40% 1 17.12.2026 -
Roman Safronov Petrolul アクティブ 78 / 76 40% 1 15.12.2026 -
Vladislav Yampolskiy Volgar アクティブ 85 / 104 40% 1 15.12.2026 -
Amir Fattakhov Znamya Truda アクティブ 69 / 85 40% 1 14.12.2026 -
Aleksander Łubik Tarxien Rainbows アクティブ 52 / 47 40% 1 11.12.2026 -
Roman Raifegerste Khimik アクティブ 87 / 79 40% 1 11.12.2026 -
Hasanboy Tojiboyev Galactik アクティブ 66 / 77 40% 1 07.12.2026 -
Zakhar Badyuk Cherepovets アクティブ 55 / 56 40% 1 07.12.2026 -
Batraz Gurtsiev Alania アクティブ 96 / 102 40% 1 07.10.2026 -
Ivan Churikov Sibir アクティブ 86 / 85 40% 1 07.10.2026 -
Daniil Barinov Parnu アクティブ 74 / 91 40% 1 14.09.2026 -
Andrey Agapov Ostrovets アクティブ 57 / 67 40% 1 11.09.2026 -
Henri Perk Nomme Kalju アクティブ 75 / 101 40% 1 09.09.2026 -
Andrey Solovey Slavia Mozyr アクティブ 116 / 106 40% 1 07.09.2026 -
Aleksandrs Kamess アクティブ 86 / 83 37% 1 31.08.2026 -
Davis Fertovs アクティブ 70 / 53 37% 1 24.08.2026 -
Egor Babich Smorgon アクティブ 99 / 73 40% 1 24.08.2026 -
Valeriy Potorocha Baranovichi アクティブ 77 / 88 40% 1 17.08.2026 -
Sebastian Berhalter Middlesbrough アクティブ 141 / 146 40% 1 01.08.2026 -
Daniil Silinskiy Gomel アクティブ 107 / 100 40% 1 01.08.2026 -